Location: Bishop�s Knoyle
(51.0728°N, 2.1714°W)
Time: 05:19:49
(UTC+00:00)

ERS-1 Rocket - Pass Details

Date: 18 September 2020
Orbit: 754 x 757 km, 98.5° (Epoch: 20 October)

Event Time Altitude Azimuth Distance (km) Brightness Sun altitude
Exits shadow 20:57:24 43° 57° (ENE) 1,061 3.5 -24.5°
Drops below altitude 10° 21:01:52 10° 356° (N) 2,297 6.0 -25.1°
Sets 21:04:16 0° 350° (N) 3,227 7.0 -25.3°
